Home   Weather   Burnaby   Past weeks

Flag for Canada Past Weather in Burnaby, British Columbia, Canada — Yesterday and Last 2 Weeks

Now
36 °F

Passing clouds.


Feels Like: 30 °F
Forecast: 24 / 35 °F
Wind: 7 mph from Southeast

Location: Vancouver International Airport

Current Time: Feb 26, 2017 at 8:55:11 pm

Latest Report: Feb 26, 2017 at 8:00 pm


Visibility: 20 mi

Pressure: 29.77 "Hg

Humidity: 60%

Dew Point: 23 °F

Location of BurnabyLocation

Past Weather in Burnaby — Graph

°F

Burnaby Temperature Yesterday

Maximum temperature yesterday: 41 °F (at 12:00 pm)
Minimum temperature yesterday: 28 °F (at 4:00 am)
Average temperature yesterday: 36 °F

High & Low Weather Summary for the Past Weeks

 TemperatureHumidityPressure
High54 °F (Feb 15, 8:00 pm)100% (Feb 12, 5:00 am)30.54 "Hg (Feb 12, 5:00 am)
Low28 °F (Feb 25, 4:00 am)46% (Feb 24, 2:00 pm)29.27 "Hg (Feb 16, 2:10 am)
Average42 °F86%29.87 "Hg
* Reported Feb 11 7:00 pm — Feb 26 7:00 pm, Burnaby, Weather by CustomWeather, © 2017

Note: Actual official high and low records may vary slightly from our data, if they occured in-between our weather recording intervals... More about our weather records

Advertising

Burnaby Weather History for the Previous 24 Hours

Scroll right to see more
 ConditionsComfort  
Time TempWeatherWind HumidityBarometerVisibility
7:00 pm
Sun, Feb 26
43 °FPassing clouds.3 mph53%29.76 "Hg30 mi
6:00 pm41 °FPassing clouds.8 mph61%29.75 "Hg20 mi
5:00 pm43 °FScattered clouds.20 mph76%29.74 "Hg20 mi
4:00 pm43 °FScattered clouds.21 mph76%29.74 "Hg20 mi
3:00 pm45 °FPassing clouds.23 mph76%29.74 "Hg20 mi
2:00 pm43 °FPassing clouds.22 mph76%29.74 "Hg20 mi
1:00 pm43 °FPassing clouds.18 mph76%29.75 "Hg20 mi
12:00 pm43 °FPartly sunny.13 mph71%29.77 "Hg20 mi
11:00 am41 °FBroken clouds.6 mph70%29.77 "Hg20 mi
10:00 am39 °FCloudy.No wind75%29.78 "Hg20 mi
9:00 am36 °FMore clouds than sun.2 mph87%29.77 "Hg20 mi
8:00 am34 °FMostly cloudy.5 mph93%29.76 "Hg20 mi
7:00 am36 °FMostly cloudy.8 mph81%29.75 "Hg20 mi
6:00 am34 °FPartly cloudy.9 mph93%29.75 "Hg15 mi
5:00 am34 °FOvercast.9 mph93%29.75 "Hg12 mi
4:37 am34 °FMostly cloudy.9 mph100%29.76 "Hg10 mi
4:00 am34 °FLight rain. Mostly cloudy.10 mph100%29.77 "Hg8 mi
3:00 am34 °FLight rain. Mostly cloudy.13 mph93%29.78 "Hg8 mi
2:00 am34 °FLight rain. Mostly cloudy.10 mph100%29.80 "Hg8 mi
1:08 am34 °FLight rain. Mostly cloudy.9 mph93%29.82 "Hg8 mi
12:00 am34 °FLight rain. Overcast.12 mph93%29.85 "Hg5 mi
11:52 pm
Sat, Feb 25
34 °FLight rain. Overcast.10 mph93%29.86 "Hg5 mi
11:00 pm34 °FSprinkles. Mostly cloudy.12 mph100%29.88 "Hg8 mi
10:25 pm36 °FSprinkles. Mostly cloudy.9 mph93%29.89 "Hg8 mi
10:00 pm36 °FOvercast.10 mph93%29.90 "Hg12 mi
9:45 pm36 °FOvercast.9 mph93%29.90 "Hg10 mi
9:25 pm36 °FSprinkles. Mostly cloudy.14 mph93%29.91 "Hg10 mi
9:04 pm37 °FSprinkles. Mostly cloudy.10 mph87%29.92 "Hg10 mi
8:00 pm37 °FSprinkles. Mostly cloudy.8 mph87%29.94 "Hg15 mi
Weather by CustomWeather, © 2017

See weather overviewHow to use our weather pages